TimeAKDT,TemperatureF,Dew PointF,Humidity,Sea Level PressureIn,VisibilityMPH,Wind Direction,Wind SpeedMPH,Gust SpeedMPH,PrecipitationIn,Events,Conditions,WindDirDegrees,DateUTC
12:53 AM,-2.0,-17.0,49,30.26,10.0,East,17.3,-,N/A,,Clear,90,2013-03-14 08:53:00
1:53 AM,-5.1,-17.0,57,30.25,10.0,East,11.5,-,N/A,,Clear,90,2013-03-14 09:53:00
2:53 AM,-5.1,-15.0,62,30.24,10.0,East,12.7,-,N/A,,Clear,90,2013-03-14 10:53:00
3:53 AM,-5.1,-15.0,62,30.22,10.0,East,11.5,-,N/A,,Clear,100,2013-03-14 11:53:00
4:53 AM,-2.9,-14.1,59,30.20,10.0,East,23.0,32.2,N/A,,Clear,90,2013-03-14 12:53:00
5:53 AM,-2.9,-14.1,59,30.20,9.0,East,26.5,34.5,N/A,,Clear,100,2013-03-14 13:53:00
6:53 AM,-2.9,-15.0,56,30.21,10.0,East,24.2,32.2,N/A,,Clear,100,2013-03-14 14:53:00
7:53 AM,-2.0,-14.1,57,30.20,10.0,East,29.9,44.9,0.00,,Mostly Cloudy,100,2013-03-14 15:53:00
8:53 AM,-0.9,-15.0,52,30.22,10.0,ESE,32.2,43.7,0.00,,Scattered Clouds,110,2013-03-14 16:53:00
9:53 AM,-0.0,-15.0,49,30.22,10.0,East,36.8,47.2,N/A,,Scattered Clouds,100,2013-03-14 17:53:00
10:53 AM,1.9,-13.0,50,30.22,10.0,ESE,33.4,50.6,N/A,,Scattered Clouds,110,2013-03-14 18:53:00
11:53 AM,3.9,-13.0,46,30.24,10.0,East,34.5,50.6,N/A,,Scattered Clouds,100,2013-03-14 19:53:00
12:53 PM,6.1,-11.9,44,30.24,10.0,East,34.5,49.5,N/A,,Scattered Clouds,100,2013-03-14 20:53:00
1:53 PM,8.1,-11.9,40,30.25,10.0,East,38.0,48.3,N/A,,Scattered Clouds,100,2013-03-14 21:53:00
2:53 PM,9.0,-11.0,40,30.26,10.0,East,27.6,40.3,N/A,,Scattered Clouds,100,2013-03-14 22:53:00
3:53 PM,10.0,-9.9,40,30.25,10.0,East,35.7,43.7,N/A,,Scattered Clouds,100,2013-03-14 23:53:00
4:53 PM,10.9,-9.9,39,30.24,10.0,East,35.7,44.9,N/A,,Scattered Clouds,100,2013-03-15 00:53:00
5:53 PM,10.9,-9.0,40,30.25,10.0,East,28.8,36.8,N/A,,Scattered Clouds,100,2013-03-15 01:53:00
6:53 PM,10.9,-9.9,39,30.24,10.0,East,25.3,35.7,N/A,,Scattered Clouds,100,2013-03-15 02:53:00
7:53 PM,10.0,-9.0,42,30.23,10.0,East,20.7,31.1,N/A,,Scattered Clouds,90,2013-03-15 03:53:00
8:53 PM,9.0,-9.9,42,30.24,10.0,East,23.0,29.9,N/A,,Scattered Clouds,90,2013-03-15 04:53:00
9:53 PM,8.1,-11.0,42,30.23,10.0,East,21.9,32.2,N/A,,Clear,100,2013-03-15 05:53:00
10:53 PM,7.0,-11.0,44,30.23,10.0,East,21.9,32.2,N/A,,Clear,100,2013-03-15 06:53:00
11:53 PM,6.1,-11.9,44,30.23,10.0,East,21.9,28.8,N/A,,Clear,100,2013-03-15 07:53:00